[[{"header":{"parameterUnit":"m.s-1","parameterCategory":1,"la1":30.2991,"la2":30.254,"lo1":-89.0895,"lo2":-89.0444,"dy":0.0017,"dx":0.0017,"nx":28,"ny":28,"refTime":"2025-01-05T09:00:00:Z","depth":0,"parameterNumber":2,"parameterNumberName":"U-component_of_WINDS"},"data":[0,0,0,0,0,0,0,0,0,0,0,0,0,0,0,0,0,0,0,0,0,0,0,0,0,0,0,0,0,0,0,0,0,0,0,0,0,0,0,0,0,0,0,0,0,0,0,0,0,0,0,0,0,0,0,0,0,0,4.1614,4.1614,0,4.1656,4.1656,4.1657,4.1616,4.1614,4.1612,4.1611,4.1652,4.1655,4.1657,0,0,0,0,0,0,0,0,0,0,0,0,0,4.1499,4.1501,4.1614,4.1614,4.1615,4.1655,4.1656,4.1657,4.1616,4.1614,4.1612,4.161,4.1652,4.1655,4.1658,0,0,0,0,0,0,0,0,0,0,0,0,0,4.1545,4.1502,4.1614,4.1599,4.1599,4.1655,4.1656,4.1657,4.1616,4.1614,4.1612,4.1609,4.1651,4.1654,4.1658,4.1731,0,0,4.167,4.1672,0,0,0,0,0,0,0,0,4.1543,4.155,4.1601,4.16,4.16,4.1628,4.1631,4.1682,4.1617,4.161,4.1611,4.1608,4.1646,4.165,4.1663,4.1733,4.1734,4.167,4.1673,4.1674,4.1676,0,0,0,0,0,0,0,4.154,4.1548,4.163,4.1602,4.1601,4.1591,4.1595,4.164,4.1641,4.161,4.1607,4.1613,4.1645,4.166,4.1664,4.1735,4.167,4.1674,4.1676,4.1678,4.1868,4.1871,0,0,0,0,0,0,4.1538,4.1545,4.1629,4.1631,4.1565,4.1595,4.1599,4.1621,4.164,4.1641,4.1615,4.1611,4.1654,4.1659,4.1665,4.1753,4.1674,4.1678,4.168,4.1866,4.1869,4.1872,0,0,0,0,0,0,4.1536,4.1546,4.1627,4.1588,4.1597,4.16,4.1624,4.1623,4.1638,4.1644,4.1644,4.1629,4.1652,4.166,4.1715,4.1754,4.168,4.1683,4.1862,4.1867,4.187,4.1927,0,0,0,0,0,0,4.1533,4.1545,4.1572,4.1589,4.1599,4.1676,4.1627,4.1626,4.1645,4.164,4.1658,4.1658,4.1651,4.171,4.1719,4.1758,4.1686,4.1859,4.1864,4.1869,4.1922,4.1933,4.1942,0,0,0,0,0,4.1529,4.1586,4.1574,4.1584,4.1634,4.1679,4.1685,4.1676,4.1648,4.1676,4.168,4.1658,4.1748,4.1716,4.1726,4.1766,4.1856,4.1863,4.1869,4.1918,4.1931,4.1942,0,0,0,0,0,0,4.1573,4.1588,4.1575,4.1639,4.1658,4.1672,4.1706,4.169,4.1717,4.1711,4.1699,4.1703,4.1762,4.177,4.1734,4.1839,4.1798,4.1806,4.1831,4.1844,4.1854,4.1851,4.169,0,0,0,0,0,4.1591,4.1626,4.1637,4.1693,4.1703,4.1704,4.1723,4.1715,4.1734,4.1741,4.1749,4.1768,4.1801,4.1823,4.1854,4.1923,4.1927,4.1956,4.1966,4.1975,4.1982,4.2021,4.2035,4.1892,4.1892,4.1892,0,0,4.1627,4.1639,4.1662,4.1702,4.1716,4.1753,4.171,4.1751,4.1779,4.1747,4.18,4.1808,4.1828,4.1892,4.192,4.19,4.2023,4.1982,4.1989,4.1992,4.2029,4.2042,4.2055,4.1896,4.1895,4.1895,0,0,4.1712,4.1725,4.1773,4.1789,4.1811,4.1811,4.1823,4.184,4.1844,4.1897,4.1875,4.1908,4.1964,4.1981,4.1996,4.2091,4.2072,4.2101,4.2154,4.2192,4.2203,4.2213,4.2248,4.226,4.2109,4.2109,4.2109,0,4.1754,4.1809,4.18,4.1844,4.1863,4.1837,4.1887,4.1902,4.1933,4.1947,4.1924,4.1996,4.2008,4.2076,4.2099,4.2112,4.2126,4.2099,4.2202,4.2212,4.2221,4.2254,4.2267,4.2112,4.2112,4.2112,4.2111,0,4.186,4.19,4.1936,4.1968,4.1991,4.2037,4.2036,4.2061,4.2051,4.2054,4.211,4.2124,4.2158,4.2174,4.2164,4.2241,4.2228,4.2204,4.2163,4.2239,4.227,4.2282,4.2117,4.2116,4.2115,4.2114,0,0,4.1972,4.2001,4.2015,4.203,4.2054,4.2084,4.213,4.2164,4.2186,4.2208,4.2247,4.2297,4.2276,4.2294,4.2286,4.232,4.2396,4.2292,4.2293,4.2312,4.2483,4.2501,4.2516,4.2384,4.2386,4.2388,4.2482,0,4.2059,4.2139,4.2134,4.2209,4.2246,4.2224,4.2264,4.2284,4.2288,4.2321,4.2325,4.2361,4.233,4.2341,4.2374,4.238,4.243,4.2373,4.242,4.2422,4.2416,4.2532,4.255,4.2637,4.2493,4.2495,4.2497,0,4.217,4.2198,4.2278,4.2299,4.2314,4.235,4.2382,4.2413,4.2435,4.2436,4.2458,4.2446,4.2493,4.2451,4.2517,4.2478,4.2497,4.2504,4.2507,4.2511,4.2464,4.2539,4.2665,4.2678,4.2516,4.2514,4.2513,0,4.2245,4.2303,4.2359,4.2372,4.2397,4.2423,4.2435,4.2455,4.2477,4.2505,4.2519,4.2552,4.257,4.2596,4.2594,4.2563,4.2661,4.2618,4.2664,4.2664,4.2684,4.2683,4.2816,4.2697,4.2697,4.2696,4.2696,0,4.2342,4.2392,4.2393,4.2427,4.2483,4.2477,4.2532,4.2541,4.2559,4.2595,4.2578,4.2612,4.2607,4.2641,4.264,4.2695,4.2703,4.2706,4.2705,4.2707,4.2707,4.2719,4.2713,4.27,4.2699,4.2698,4.2698,0,4.2434,4.2437,4.2497,4.2516,4.2523,4.2563,4.258,4.2613,4.2617,4.2663,4.2674,4.268,4.272,4.2721,4.2766,4.2765,4.2833,4.2825,4.2826,4.2824,4.2869,4.2865,4.3014,4.3034,4.2902,4.2904,4.2905,0,4.2496,4.2534,4.2559,4.2582,4.2596,4.2633,4.2656,4.2652,4.2677,4.2707,4.2736,4.2775,4.2805,4.2871,4.2879,4.2915,4.2907,4.2957,4.2912,4.2915,4.2909,4.2907,4.2911,4.2966,4.2967,4.2969,4.297,0,4.2605,4.2606,4.2639,4.2674,4.2702,4.2729,4.2754,4.2774,4.2773,4.2802,4.2843,4.2867,4.2915,4.2954,4.2989,4.3001,4.2986,4.2984,4.2996,4.2999,4.2998,4.3,4.285,4.298,4.2979,4.2978,4.2978,4.2977,4.2685,4.2718,4.2742,4.278,4.2799,4.2824,4.2856,4.2865,4.29,4.2939,4.2935,4.2981,4.3004,4.305,4.3065,4.3102,4.3084,4.3102,4.3106,4.3111,4.3116,4.2993,4.3108,4.3107,4.3107,4.3107,4.3107,0,4.2794,4.2808,4.2844,4.2881,4.2912,4.2896,4.2923,4.295,4.2991,4.3015,4.3046,4.3095,4.3133,4.3146,4.3184,4.321,4.3205,4.322,4.3218,4.3222,4.3129,4.3115,4.3225,4.3225,4.3225,4.3225,4.3225,4.3225,4.2854,4.2911,4.2914,4.2981,4.2995,4.3041,4.3058,4.3081,4.31,4.3155,4.3188,4.3196,4.3216,4.3255,4.329,4.3293,4.3308,4.3327,4.3327,4.324,4.3228,4.3217,4.3203,4.333,4.333,4.3416,4.3417,4.3418]},{"header":{"parameterUnit":"m.s-1","parameterCategory":1,"la1":30.2991,"la2":30.254,"lo1":-89.0895,"lo2":-89.0444,"dy":0.0017,"dx":0.0017,"nx":28,"ny":28,"refTime":"2025-01-05T09:00:00:Z","depth":0,"parameterNumber":3,"parameterNumberName":"V-component_of_WINDS"},"data":[0,0,0,0,0,0,0,0,0,0,0,0,0,0,0,0,0,0,0,0,0,0,0,0,0,0,0,0,0,0,0,0,0,0,0,0,0,0,0,0,0,0,0,0,0,0,0,0,0,0,0,0,0,0,0,0,0,0,-7.0162,-7.0163,0,-7.0306,-7.0307,-7.0309,-7.0298,-7.0296,-7.0294,-7.0292,-7.0434,-7.044,-7.0446,0,0,0,0,0,0,0,0,0,0,0,0,0,-6.9875,-6.988,-7.0162,-7.0163,-7.0165,-7.0305,-7.0307,-7.0309,-7.0299,-7.0296,-7.0293,-7.0291,-7.0433,-7.0439,-7.0446,0,0,0,0,0,0,0,0,0,0,0,0,0,-7.0007,-6.9882,-7.0161,-7.0177,-7.018,-7.0305,-7.0307,-7.031,-7.0299,-7.0296,-7.0293,-7.029,-7.043,-7.0439,-7.0447,-7.0565,0,0,-7.0474,-7.0478,0,0,0,0,0,0,0,0,-6.9999,-7.0017,-7.0173,-7.0176,-7.0179,-7.0281,-7.0258,-7.0395,-7.03,-7.0254,-7.0292,-7.0288,-7.0386,-7.0398,-7.0432,-7.0572,-7.0578,-7.0475,-7.048,-7.0484,-7.0486,0,0,0,0,0,0,0,-6.999,-7.0011,-7.0218,-7.0175,-7.0179,-7.0176,-7.0191,-7.0284,-7.0336,-7.0257,-7.0257,-7.0274,-7.0387,-7.0423,-7.0435,-7.058,-7.0474,-7.0482,-7.0487,-7.0491,-7.0825,-7.0829,0,0,0,0,0,0,-6.9978,-7.0004,-7.0214,-7.0223,-7.008,-7.0184,-7.0201,-7.0251,-7.0335,-7.0344,-7.0277,-7.0273,-7.041,-7.0425,-7.044,-7.0584,-7.0483,-7.0492,-7.0497,-7.0822,-7.0826,-7.083,0,0,0,0,0,0,-6.9972,-6.9997,-7.0208,-7.0113,-7.014,-7.0192,-7.0249,-7.0256,-7.0292,-7.035,-7.0358,-7.0305,-7.0408,-7.0428,-7.0535,-7.0589,-7.0495,-7.0503,-7.0817,-7.0823,-7.0828,-7.0873,0,0,0,0,0,0,-6.9964,-6.9995,-7.0041,-7.0114,-7.0145,-7.0301,-7.0252,-7.0261,-7.0308,-7.0305,-7.0378,-7.0387,-7.0407,-7.0522,-7.0543,-7.0599,-7.051,-7.0813,-7.082,-7.0826,-7.0867,-7.088,-7.089,0,0,0,0,0,-6.9954,-7.0046,-7.0043,-7.0068,-7.0203,-7.0305,-7.0322,-7.0344,-7.0312,-7.0359,-7.0396,-7.0385,-7.058,-7.0533,-7.0557,-7.0616,-7.0809,-7.0818,-7.0826,-7.0862,-7.0877,-7.089,0,0,0,0,0,0,-6.9975,-7.0056,-7.0053,-7.0173,-7.0232,-7.0303,-7.0361,-7.0359,-7.0428,-7.0422,-7.0445,-7.0462,-7.057,-7.0604,-7.055,-7.0736,-7.069,-7.0704,-7.0709,-7.0724,-7.0736,-7.0725,-7.0517,0,0,0,0,0,-6.9994,-7.0071,-7.0137,-7.0235,-7.0266,-7.0309,-7.0353,-7.0366,-7.0428,-7.0452,-7.0497,-7.0556,-7.0631,-7.0679,-7.0751,-7.0872,-7.0888,-7.0925,-7.0937,-7.0946,-7.0957,-7.1025,-7.1043,-7.0857,-7.0857,-7.0857,0,0,-7.0033,-7.0087,-7.0133,-7.0241,-7.0289,-7.0367,-7.033,-7.0413,-7.0471,-7.0464,-7.0569,-7.0604,-7.0672,-7.0787,-7.084,-7.0819,-7.1012,-7.0957,-7.0964,-7.097,-7.1036,-7.1053,-7.1069,-7.0863,-7.0862,-7.0861,0,0,-7.0144,-7.0193,-7.0281,-7.0331,-7.0404,-7.0432,-7.0454,-7.0526,-7.0549,-7.0655,-7.0652,-7.0721,-7.0849,-7.0898,-7.094,-7.1073,-7.1066,-7.1096,-7.1156,-7.1222,-7.1236,-7.125,-7.1298,-7.1315,-7.1107,-7.1107,-7.1107,0,-7.0183,-7.0302,-7.0326,-7.0412,-7.046,-7.046,-7.055,-7.0596,-7.0688,-7.0721,-7.0696,-7.0859,-7.0904,-7.1031,-7.1064,-7.1098,-7.1123,-7.1087,-7.1233,-7.1246,-7.1259,-7.1305,-7.1323,-7.111,-7.111,-7.1109,-7.1109,0,-7.0347,-7.043,-7.0492,-7.0584,-7.0639,-7.0726,-7.0763,-7.0816,-7.0824,-7.0855,-7.0963,-7.1018,-7.1102,-7.1133,-7.1141,-7.1263,-7.1247,-7.1228,-7.1182,-7.1279,-7.1323,-7.1341,-7.1114,-7.1113,-7.1112,-7.1112,0,0,-7.0474,-7.0581,-7.0603,-7.0646,-7.0728,-7.0792,-7.0879,-7.0963,-7.1008,-7.1073,-7.1146,-7.1256,-7.124,-7.1287,-7.13,-7.1358,-7.1462,-7.1332,-7.1334,-7.1354,-7.16,-7.1615,-7.1635,-7.1458,-7.1461,-7.1464,-7.1595,0,-7.0594,-7.0751,-7.0777,-7.0914,-7.0991,-7.0993,-7.1069,-7.1128,-7.1159,-7.1229,-7.1263,-7.1341,-7.1312,-7.1341,-7.1399,-7.1437,-7.1511,-7.1428,-7.1526,-7.153,-7.151,-7.1657,-7.1673,-7.1793,-7.1612,-7.1615,-7.1617,0,-7.0755,-7.0826,-7.0972,-7.1046,-7.1079,-7.1147,-7.1228,-7.1294,-7.1361,-7.138,-7.1434,-7.1442,-7.1532,-7.1484,-7.1609,-7.1552,-7.1594,-7.1619,-7.1624,-7.1634,-7.1579,-7.1671,-7.1832,-7.185,-7.1644,-7.1642,-7.164,0,-7.0834,-7.0966,-7.1071,-7.1107,-7.1196,-7.1244,-7.1283,-7.1347,-7.1396,-7.1466,-7.1499,-7.1577,-7.162,-7.1681,-7.1709,-7.1671,-7.1833,-7.1787,-7.1851,-7.1851,-7.1884,-7.1882,-7.2054,-7.1911,-7.1911,-7.1911,-7.191,0,-7.0965,-7.1054,-7.1108,-7.1172,-7.1272,-7.1301,-7.1399,-7.1437,-7.1494,-7.1565,-7.1571,-7.1638,-7.1671,-7.1743,-7.1765,-7.1866,-7.1885,-7.1903,-7.1908,-7.1903,-7.1901,-7.193,-7.1923,-7.1916,-7.1915,-7.1914,-7.1913,0,-7.107,-7.111,-7.1224,-7.13,-7.1321,-7.1392,-7.1456,-7.1518,-7.1551,-7.1641,-7.1664,-7.1714,-7.1799,-7.1834,-7.1937,-7.1952,-7.2069,-7.2067,-7.2047,-7.2048,-7.2111,-7.2105,-7.2308,-7.2336,-7.2175,-7.2176,-7.2178,0,-7.1151,-7.1221,-7.1305,-7.1354,-7.1395,-7.1474,-7.1526,-7.1557,-7.161,-7.1693,-7.1746,-7.1831,-7.1901,-7.2036,-7.2081,-7.2161,-7.2161,-7.2227,-7.2173,-7.2166,-7.2163,-7.2159,-7.2166,-7.2237,-7.2238,-7.224,-7.2241,0,-7.1292,-7.1309,-7.1384,-7.1467,-7.1529,-7.1595,-7.1659,-7.1699,-7.174,-7.18,-7.1888,-7.1942,-7.205,-7.2134,-7.2217,-7.2256,-7.2256,-7.2258,-7.2277,-7.2272,-7.2258,-7.2267,-7.2074,-7.2253,-7.2251,-7.2251,-7.225,-7.2249,-7.1388,-7.145,-7.152,-7.1604,-7.1656,-7.1717,-7.178,-7.1822,-7.1896,-7.1987,-7.2001,-7.2095,-7.2162,-7.2273,-7.2316,-7.239,-7.2373,-7.24,-7.2407,-7.2414,-7.2418,-7.2247,-7.2405,-7.2404,-7.2404,-7.2404,-7.2404,0,-7.1529,-7.1575,-7.1652,-7.1744,-7.181,-7.1806,-7.1878,-7.1933,-7.2017,-7.2079,-7.2149,-7.2251,-7.2334,-7.2387,-7.247,-7.252,-7.2522,-7.254,-7.2537,-7.2546,-7.2428,-7.2404,-7.2538,-7.2538,-7.2537,-7.2537,-7.2537,-7.2537,-7.1611,-7.1717,-7.1742,-7.1874,-7.1919,-7.2013,-7.2054,-7.211,-7.2161,-7.2275,-7.2345,-7.238,-7.2439,-7.2527,-7.2603,-7.2617,-7.2647,-7.2667,-7.268,-7.2568,-7.2554,-7.2541,-7.2518,-7.2674,-7.2674,-7.2792,-7.2793,-7.2793]}]]